| time (UTC) | temp F | wind direction | speed MPH | gust MPH | rain 1hr in | rain 24hr in | rain mn in | humidity % | barometer mb |
| 20260510084102 | 54 | 212 | 14.0 | 21.0 | 0.00 | 0.02 | 0.02 | 93 | 1007.2 |
| 20260510083059 | 55 | 233 | 15.0 | 21.0 | 0.00 | 0.02 | 0.02 | 92 | 1007.0 |
| 20260510082026 | 55 | 229 | 15.0 | 21.0 | 0.00 | 0.02 | 0.02 | 92 | 1006.8 |
| 20260510081044 | 55 | 183 | 16.0 | 26.0 | 0.00 | 0.02 | 0.02 | 92 | 1006.8 |
| 20260510080019 | 54 | 189 | 13.0 | 18.0 | 0.00 | 0.02 | 0.02 | 93 | 1006.7 |
| 20260510075115 | 54 | 192 | 13.0 | 18.0 | 0.00 | 0.02 | 0.02 | 95 | 1006.6 |
| 20260510074111 | 55 | 221 | 14.0 | 21.0 | 0.00 | 0.02 | 0.02 | 93 | 1006.3 |
| 20260510073108 | 55 | 196 | 12.0 | 18.0 | 0.00 | 0.02 | 0.02 | 92 | 1006.3 |
| 20260510072106 | 55 | 202 | 13.0 | 17.0 | 0.00 | 0.02 | 0.02 | 92 | 1006.3 |
| 20260510071101 | 55 | 180 | 11.0 | 14.0 | 0.00 | 0.02 | 0.02 | 92 | 1006.0 |
| 20260510070059 | 55 | 212 | 12.0 | 18.0 | 0.00 | 0.02 | 0.02 | 92 | 1005.9 |
| 20260510065055 | 56 | 203 | 13.0 | 19.0 | 0.00 | 0.02 | 0.02 | 91 | 1005.8 |
| 20260510064112 | 56 | 197 | 12.0 | 16.0 | 0.00 | 0.02 | 0.02 | 91 | 1005.7 |
| 20260510063047 | 56 | 184 | 14.0 | 17.0 | 0.00 | 0.02 | 0.02 | 90 | 1005.5 |
| 20260510062104 | 56 | 188 | 14.0 | 19.0 | 0.00 | 0.02 | 0.02 | 90 | 1005.3 |
| 20260510061040 | 56 | 241 | 9.0 | 11.0 | 0.00 | 0.02 | 0.02 | 89 | 1005.3 |
| 20260510060038 | 56 | 184 | 9.0 | 12.0 | 0.00 | 0.02 | 0.02 | 87 | 1005.2 |
| 20260510055032 | 57 | 211 | 10.0 | 14.0 | 0.00 | 0.02 | 0.02 | 86 | 1005.1 |
| 20260510054030 | 57 | 237 | 11.0 | 15.0 | 0.00 | 0.02 | 0.02 | 84 | 1004.9 |
| 20260510053048 | 57 | 250 | 9.0 | 15.0 | 0.00 | 0.02 | 0.02 | 83 | 1004.8 |
| 20260510052022 | 58 | 210 | 8.0 | 11.0 | 0.00 | 0.02 | 0.02 | 81 | 1004.6 |
| 20260510051020 | 58 | 200 | 9.0 | 12.0 | 0.00 | 0.02 | 0.02 | 80 | 1004.7 |
| 20260510050115 | 59 | 217 | 13.0 | 18.0 | 0.00 | 0.02 | 0.02 | 79 | 1004.6 |
| 20260510045114 | 61 | 218 | 16.0 | 23.0 | 0.00 | 0.02 | 0.02 | 80 | 1004.7 |
| 20260510044150 | 61 | 207 | 12.0 | 17.0 | 0.00 | 0.02 | 0.02 | 80 | 1004.5 |
| 20260510043107 | 62 | 222 | 10.0 | 15.0 | 0.00 | 0.02 | 0.02 | 81 | 1004.5 |
| 20260510042103 | 62 | 210 | 10.0 | 15.0 | 0.00 | 0.02 | 0.02 | 83 | 1004.6 |
| 20260510041059 | 61 | 216 | 12.0 | 16.0 | 0.00 | 0.02 | 0.02 | 85 | 1004.6 |
| 20260510040055 | 60 | 216 | 13.0 | 19.0 | 0.00 | 0.02 | 0.02 | 84 | 1004.6 |
| 20260510035113 | 59 | 224 | 14.0 | 22.0 | 0.00 | 0.02 | 0.02 | 83 | 1004.5 |
| 20260510034047 | 60 | 208 | 13.0 | 18.0 | 0.00 | 0.02 | 0.02 | 82 | 1004.5 |
| 20260510033104 | 60 | 209 | 16.0 | 26.0 | 0.00 | 0.02 | 0.02 | 80 | 1004.4 |
| 20260510032041 | 61 | 205 | 15.0 | 26.0 | 0.00 | 0.02 | 0.02 | 79 | 1004.3 |
| 20260510031059 | 61 | 213 | 14.0 | 23.0 | 0.00 | 0.02 | 0.02 | 77 | 1004.4 |
| 20260510030033 | 62 | 239 | 15.0 | 19.0 | 0.00 | 0.02 | 0.02 | 77 | 1004.4 |
| 20260510025111 | 62 | 230 | 17.0 | 24.0 | 0.00 | 0.02 | 0.02 | 74 | 1004.4 |
| 20260510024028 | 64 | 192 | 18.0 | 27.0 | 0.00 | 0.02 | 0.02 | 72 | 1004.2 |
| 20260510023045 | 64 | 206 | 20.0 | 28.0 | 0.00 | 0.02 | 0.02 | 73 | 1004.3 |
| 20260510022019 | 64 | 216 | 20.0 | 27.0 | 0.00 | 0.02 | 0.02 | 74 | 1004.2 |
| 20260510021017 | 62 | 232 | 19.0 | 25.0 | 0.00 | 0.02 | 0.02 | 78 | 1004.2 |
| 20260510020114 | 63 | 212 | 17.0 | 23.0 | 0.00 | 0.02 | 0.02 | 76 | 1004.1 |
| 20260510015109 | 62 | 203 | 16.0 | 23.0 | 0.00 | 0.02 | 0.02 | 79 | 1004.1 |
| 20260510014106 | 62 | 229 | 19.0 | 26.0 | 0.00 | 0.02 | 0.02 | 78 | 1004.2 |
| 20260510013103 | 62 | 228 | 16.0 | 26.0 | 0.00 | 0.02 | 0.02 | 78 | 1004.2 |
| 20260510012059 | 63 | 203 | 17.0 | 23.0 | 0.00 | 0.02 | 0.02 | 77 | 1004.1 |
| 20260510011054 | 63 | 207 | 16.0 | 25.0 | 0.00 | 0.02 | 0.02 | 79 | 1004.1 |
| 20260510010051 | 61 | 229 | 15.0 | 23.0 | 0.00 | 0.02 | 0.02 | 81 | 1004.1 |
| 20260510005047 | 61 | 207 | 17.0 | 23.0 | 0.00 | 0.02 | 0.02 | 82 | 1004.2 |
| 20260510004046 | 61 | 221 | 17.0 | 27.0 | 0.00 | 0.02 | 0.02 | 82 | 1004.2 |
| 20260510003042 | 62 | 216 | 15.0 | 27.0 | 0.00 | 0.02 | 0.02 | 81 | 1004.4 |
| 20260510002058 | 62 | 217 | 13.0 | 20.0 | 0.00 | 0.02 | 0.02 | 82 | 1004.2 |
| 20260510001033 | 61 | 232 | 12.0 | 16.0 | 0.00 | 0.02 | 0.02 | 81 | 1004.3 |
| 20260510000030 | 61 | 217 | 12.0 | 18.0 | 0.00 | 0.02 | 0.02 | 81 | 1004.4 |
| 20260509235048 | 62 | 205 | 11.0 | 16.0 | 0.00 | 0.02 | 0.02 | 81 | 1004.6 |
| 20260509234046 | 61 | 230 | 12.0 | 22.0 | 0.00 | 0.02 | 0.02 | 78 | 1004.6 |
| 20260509233020 | 61 | 251 | 14.0 | 21.0 | 0.00 | 0.02 | 0.02 | 77 | 1004.5 |
| 20260509232016 | 62 | 212 | 12.0 | 18.0 | 0.00 | 0.02 | 0.02 | 77 | 1004.5 |
| 20260509231113 | 63 | 236 | 13.0 | 21.0 | 0.00 | 0.02 | 0.02 | 79 | 1004.5 |
| 20260509230153 | 63 | 204 | 12.0 | 18.0 | 0.00 | 0.02 | 0.02 | 82 | 1004.7 |
| 20260509225108 | 60 | 226 | 9.0 | 15.0 | 0.00 | 0.02 | 0.02 | 83 | 1004.8 |
| 20260509223100 | 61 | 221 | 13.0 | 18.0 | 0.00 | 0.02 | 0.02 | 84 | 1004.7 |
| 20260509222118 | 62 | 222 | 14.0 | 20.0 | 0.00 | 0.04 | 0.02 | 90 | 1004.8 |
| 20260509221052 | 61 | 230 | 16.0 | 24.0 | 0.00 | 0.04 | 0.02 | 94 | 1004.7 |
| 20260509220048 | 59 | 243 | 13.0 | 21.0 | 0.00 | 0.04 | 0.02 | 95 | 1004.7 |
| 20260509215045 | 59 | 215 | 8.0 | 16.0 | 0.00 | 0.05 | 0.02 | 97 | 1004.8 |
| 20260509214041 | 60 | 213 | 9.0 | 13.0 | 0.00 | 0.05 | 0.02 | 99 | 1004.7 |
| 20260509213038 | 58 | 201 | 10.0 | 14.0 | 0.00 | 0.05 | 0.02 | 99 | 1004.8 |
| 20260509212034 | 58 | 220 | 11.0 | 17.0 | 0.00 | 0.05 | 0.02 | 99 | 1004.7 |
| 20260509211053 | 58 | 217 | 6.0 | 8.0 | 0.00 | 0.05 | 0.02 | 99 | 1004.7 |
| 20260509210027 | 57 | 246 | 7.0 | 11.0 | 0.00 | 0.05 | 0.02 | 99 | 1004.8 |
| 20260509205044 | 56 | 213 | 8.0 | 15.0 | 0.00 | 0.05 | 0.02 | 98 | 1004.7 |
| 20260509204023 | 56 | 225 | 7.0 | 10.0 | 0.00 | 0.05 | 0.02 | 98 | 1004.5 |
| 20260509203017 | 55 | 221 | 6.0 | 10.0 | 0.00 | 0.05 | 0.02 | 98 | 1004.5 |
| 20260509202135 | 55 | 213 | 4.0 | 9.0 | 0.00 | 0.05 | 0.02 | 97 | 1004.4 |
| 20260509201110 | 54 | 180 | 2.0 | 4.0 | 0.00 | 0.05 | 0.02 | 99 | 1004.2 |
| 20260509200108 | 54 | 180 | 3.0 | 6.0 | 0.00 | 0.05 | 0.02 | 99 | 1004.0 |
| 20260509195105 | 54 | 232 | 5.0 | 8.0 | 0.00 | 0.05 | 0.02 | 99 | 1004.0 |
| 20260509194102 | 54 | 229 | 8.0 | 14.0 | 0.00 | 0.05 | 0.02 | 99 | 1003.9 |
| 20260509193056 | 54 | 227 | 7.0 | 15.0 | 0.00 | 0.05 | 0.02 | 99 | 1003.8 |
| 20260509192053 | 54 | 180 | 2.0 | 4.0 | 0.00 | 0.05 | 0.02 | 99 | 1003.5 |
| 20260509191052 | 54 | 180 | 4.0 | 7.0 | 0.00 | 0.05 | 0.02 | 99 | 1003.6 |
| 20260509190046 | 54 | 220 | 2.0 | 4.0 | 0.00 | 0.05 | 0.02 | 99 | 1003.5 |
| 20260509185042 | 54 | 225 | 2.0 | 4.0 | 0.00 | 0.05 | 0.02 | 98 | 1003.4 |
| 20260509184040 | 53 | 207 | 3.0 | 5.0 | 0.00 | 0.05 | 0.02 | 98 | 1003.5 |
| 20260509183035 | 53 | 215 | 3.0 | 6.0 | 0.00 | 0.05 | 0.02 | 98 | 1003.5 |
| 20260509182032 | 54 | 203 | 6.0 | 10.0 | 0.00 | 0.05 | 0.02 | 98 | 1003.5 |
| 20260509181028 | 54 | 201 | 6.0 | 8.0 | 0.00 | 0.05 | 0.02 | 98 | 1003.5 |
| 20260509180026 | 54 | 214 | 7.0 | 9.0 | 0.00 | 0.06 | 0.02 | 98 | 1003.4 |
| 20260509175022 | 54 | 262 | 8.0 | 11.0 | 0.00 | 0.06 | 0.02 | 98 | 1003.3 |
| 20260509174017 | 54 | 222 | 6.0 | 10.0 | 0.00 | 0.06 | 0.02 | 98 | 1003.3 |
| 20260509173135 | 53 | 220 | 3.0 | 9.0 | 0.00 | 0.06 | 0.02 | 97 | 1003.2 |
| 20260509172111 | 53 | 225 | 3.0 | 6.0 | 0.00 | 0.06 | 0.02 | 98 | 1003.2 |
| 20260509171109 | 53 | 228 | 6.0 | 11.0 | 0.00 | 0.06 | 0.02 | 97 | 1003.2 |
| 20260509170106 | 53 | 242 | 3.0 | 8.0 | 0.00 | 0.06 | 0.02 | 97 | 1003.1 |
| 20260509165101 | 53 | 251 | 3.0 | 5.0 | 0.00 | 0.06 | 0.02 | 97 | 1003.1 |
| 20260509164057 | 53 | 222 | 3.0 | 4.0 | 0.00 | 0.06 | 0.02 | 97 | 1003.1 |
| 20260509163114 | 53 | 194 | 2.0 | 4.0 | 0.00 | 0.06 | 0.02 | 97 | 1003.0 |
| 20260509162115 | 53 | 188 | 3.0 | 7.0 | 0.00 | 0.06 | 0.02 | 97 | 1003.2 |
| 20260509161046 | 53 | 232 | 4.0 | 7.0 | 0.00 | 0.06 | 0.02 | 97 | 1003.2 |
| 20260509160042 | 53 | 248 | 1.0 | 5.0 | 0.00 | 0.06 | 0.02 | 97 | 1003.2 |
| 20260509155041 | 53 | 226 | 3.0 | 6.0 | 0.02 | 0.06 | 0.02 | 97 | 1003.2 |
| 20260509154036 | 53 | 214 | 5.0 | 11.0 | 0.02 | 0.06 | 0.02 | 97 | 1003.2 |
| 20260509153032 | 53 | 236 | 10.0 | 16.0 | 0.02 | 0.06 | 0.02 | 97 | 1003.5 |
| 20260509152028 | 53 | 199 | 4.0 | 12.0 | 0.02 | 0.06 | 0.02 | 97 | 1003.5 |
| 20260509151025 | 54 | 231 | 5.0 | 8.0 | 0.02 | 0.06 | 0.02 | 97 | 1003.5 |
| 20260509150021 | 53 | 234 | 5.0 | 15.0 | 0.02 | 0.06 | 0.02 | 97 | 1003.5 |
| 20260509145018 | 53 | 232 | 0.0 | 2.0 | 0.00 | 0.04 | 0.00 | 97 | 1003.6 |
| 20260509144114 | 54 | 221 | 2.0 | 4.0 | 0.00 | 0.04 | 0.00 | 97 | 1003.6 |
| 20260509143153 | 54 | 233 | 3.0 | 5.0 | 0.00 | 0.04 | 0.00 | 97 | 1003.8 |
| 20260509142108 | 54 | 236 | 3.0 | 7.0 | 0.00 | 0.04 | 0.00 | 96 | 1003.8 |
| 20260509141104 | 54 | 237 | 2.0 | 4.0 | 0.00 | 0.04 | 0.00 | 96 | 1003.8 |
| 20260509140122 | 54 | 279 | 1.0 | 3.0 | 0.00 | 0.04 | 0.00 | 96 | 1003.9 |
| 20260509135120 | 53 | 291 | 2.0 | 4.0 | 0.00 | 0.04 | 0.00 | 95 | 1003.8 |
| 20260509134054 | 53 | 305 | 2.0 | 4.0 | 0.00 | 0.04 | 0.00 | 94 | 1003.7 |
| 20260509133050 | 54 | 270 | 3.0 | 4.0 | 0.00 | 0.04 | 0.00 | 94 | 1003.7 |
| 20260509132046 | 53 | 280 | 3.0 | 5.0 | 0.00 | 0.04 | 0.00 | 93 | 1003.8 |
| 20260509131042 | 52 | 261 | 2.0 | 4.0 | 0.00 | 0.04 | 0.00 | 92 | 1003.9 |
| 20260509130040 | 52 | 142 | 1.0 | 3.0 | 0.00 | 0.04 | 0.00 | 92 | 1003.8 |
| 20260509125036 | 53 | 213 | 3.0 | 5.0 | 0.00 | 0.04 | 0.00 | 92 | 1003.7 |
| 20260509124032 | 53 | 229 | 4.0 | 8.0 | 0.00 | 0.04 | 0.00 | 91 | 1003.8 |
| 20260509123029 | 53 | 231 | 3.0 | 7.0 | 0.00 | 0.04 | 0.00 | 91 | 1003.8 |
| 20260509122025 | 52 | 209 | 3.0 | 6.0 | 0.00 | 0.04 | 0.00 | 90 | 1003.8 |
| 20260509121022 | 52 | 261 | 2.0 | 11.0 | 0.00 | 0.04 | 0.00 | 90 | 1003.9 |
| 20260509120018 | 52 | 176 | 2.0 | 4.0 | 0.00 | 0.04 | 0.00 | 89 | 1004.0 |
| 20260509115119 | 52 | 217 | 2.0 | 4.0 | 0.00 | 0.04 | 0.04 | 88 | 1004.0 |
| 20260509114111 | 52 | 180 | 3.0 | 7.0 | 0.00 | 0.05 | 0.04 | 87 | 1004.0 |
| 20260509113108 | 51 | 190 | 2.0 | 7.0 | 0.00 | 0.05 | 0.04 | 86 | 1004.0 |
| 20260509112147 | 52 | 135 | 2.0 | 3.0 | 0.00 | 0.05 | 0.04 | 86 | 1004.0 |
| 20260509111101 | 52 | 121 | 1.0 | 3.0 | 0.00 | 0.05 | 0.04 | 85 | 1004.1 |
| 20260509110058 | 52 | 143 | 1.0 | 2.0 | 0.00 | 0.05 | 0.04 | 85 | 1004.2 |
| 20260509105115 | 52 | 79 | 1.0 | 2.0 | 0.00 | 0.05 | 0.04 | 85 | 1004.0 |
| 20260509104050 | 53 | 165 | 1.0 | 2.0 | 0.00 | 0.05 | 0.04 | 85 | 1004.0 |
| 20260509103049 | 53 | 180 | 0.0 | 2.0 | 0.00 | 0.05 | 0.04 | 85 | 1004.0 |
| 20260509102045 | 53 | 0.0 | 1.0 | 0.00 | 0.05 | 0.04 | 85 | 1004.0 | |
| 20260509101040 | 53 | 0.0 | 1.0 | 0.00 | 0.05 | 0.04 | 84 | 1004.1 | |
| 20260509100037 | 53 | 252 | 0.0 | 2.0 | 0.00 | 0.05 | 0.04 | 84 | 1004.0 |
| 20260509095034 | 53 | 245 | 1.0 | 3.0 | 0.00 | 0.05 | 0.04 | 85 | 1003.8 |
| 20260509094031 | 53 | 229 | 1.0 | 2.0 | 0.00 | 0.05 | 0.04 | 85 | 1003.8 |
| 20260509093029 | 53 | 264 | 1.0 | 4.0 | 0.00 | 0.05 | 0.04 | 84 | 1003.7 |
| 20260509092023 | 53 | 252 | 0.0 | 2.0 | 0.00 | 0.06 | 0.04 | 85 | 1003.6 |
| 20260509091021 | 53 | 90 | 1.0 | 2.0 | 0.00 | 0.09 | 0.04 | 85 | 1003.6 |
| 20260509090036 | 53 | 65 | 1.0 | 3.0 | 0.00 | 0.18 | 0.04 | 86 | 1003.7 |
| 20260509085112 | 53 | 96 | 1.0 | 3.0 | 0.00 | 0.25 | 0.04 | 86 | 1003.7 |